FDX5023 RJAA-VHHH

Flight info

Callsign FDX5023
Flight time 3h 55m
Altitude 34000
Route PIGOK Y50 IGMON A1 OSTAR/N0484F360 A1 ELATO V522 ABBEY
Aircraft B77L/H-SDE1E2E3FGHIJ2J3J4J5M1RWXY/LB1D1

Departure

Time 2026-05-06 17:38
Airport Narita International Airport (RJAA)

Arrival

Time 2026-05-06 21:34
Airport Hong Kong International Airport (VHHH)
Time Latitude Longitude Altitude Speed Heading
2026-05-06 16:50 35.77141 140.37829 148 ft 0 kts 59°
2026-05-06 17:29 35.77132 140.37808 148 ft 4 kts 59°
2026-05-06 17:29 35.77118 140.37780 148 ft 4 kts 63°
2026-05-06 17:29 35.77107 140.37752 148 ft 4 kts 51°
2026-05-06 17:30 35.77092 140.37739 148 ft 4 kts 14°
2026-05-06 17:30 35.77071 140.37739 148 ft 4 kts 336°
2026-05-06 17:30 35.77049 140.37753 148 ft 2 kts 329°
2026-05-06 17:30 35.77044 140.37756 148 ft 0 kts 329°
2026-05-06 17:33 35.77045 140.37756 148 ft 0 kts 329°
2026-05-06 17:33 35.77073 140.37736 148 ft 10 kts 329°
2026-05-06 17:34 35.77143 140.37685 148 ft 10 kts 328°
2026-05-06 17:34 35.77161 140.37634 148 ft 7 kts 261°
2026-05-06 17:34 35.77140 140.37584 148 ft 7 kts 240°
2026-05-06 17:34 35.77116 140.37533 148 ft 7 kts 240°
2026-05-06 17:35 35.77087 140.37473 148 ft 9 kts 239°
2026-05-06 17:35 35.77056 140.37399 148 ft 10 kts 261°
2026-05-06 17:35 35.77098 140.37332 147 ft 11 kts 330°
2026-05-06 17:36 35.77248 140.37225 147 ft 14 kts 329°
2026-05-06 17:36 35.77333 140.37164 147 ft 15 kts 329°
2026-05-06 17:36 35.77424 140.37099 147 ft 15 kts 330°
2026-05-06 17:36 35.77488 140.37043 147 ft 10 kts 308°
2026-05-06 17:37 35.77486 140.36962 148 ft 10 kts 242°
2026-05-06 17:37 35.77450 140.36887 148 ft 10 kts 239°
2026-05-06 17:37 35.77393 140.36863 147 ft 10 kts 152°
2026-05-06 17:37 35.77231 140.36981 146 ft 55 kts 149°
2026-05-06 17:38 35.76713 140.37354 149 ft 118 kts 149°
2026-05-06 17:38 35.75845 140.37983 151 ft 169 kts 149°
2026-05-06 17:38 35.74757 140.38770 407 ft 185 kts 149°
2026-05-06 17:38 35.73623 140.39584 906 ft 191 kts 150°
2026-05-06 17:39 35.72479 140.40394 1589 ft 187 kts 153°
2026-05-06 17:39 35.71321 140.41207 2049 ft 199 kts 153°
2026-05-06 17:39 35.70072 140.42085 2347 ft 217 kts 153°
2026-05-06 17:39 35.68693 140.43070 2586 ft 239 kts 152°
2026-05-06 17:40 35.67213 140.44136 3136 ft 250 kts 152°
2026-05-06 17:40 35.65688 140.45246 3769 ft 259 kts 152°
2026-05-06 17:40 35.64105 140.46396 4391 ft 267 kts 153°
2026-05-06 17:40 35.62505 140.47564 5230 ft 267 kts 153°
2026-05-06 17:41 35.60905 140.48730 6019 ft 268 kts 153°
2026-05-06 17:41 35.59288 140.49902 6724 ft 272 kts 154°
2026-05-06 17:41 35.57648 140.51088 7368 ft 276 kts 154°
2026-05-06 17:41 35.55976 140.52290 8018 ft 280 kts 154°
2026-05-06 17:42 35.54281 140.53506 8692 ft 284 kts 154°
2026-05-06 17:42 35.52583 140.54726 9335 ft 288 kts 154°
2026-05-06 17:42 35.50844 140.55973 9985 ft 292 kts 154°
2026-05-06 17:42 35.49061 140.57250 10432 ft 304 kts 154°
2026-05-06 17:43 35.47156 140.58594 10578 ft 324 kts 156°
2026-05-06 17:43 35.44983 140.59378 10702 ft 336 kts 181°
2026-05-06 17:43 35.42640 140.58894 10881 ft 349 kts 206°
2026-05-06 17:43 35.40736 140.57189 11352 ft 355 kts 231°
2026-05-06 17:44 35.39384 140.54654 11895 ft 360 kts 241°
2026-05-06 17:44 35.38140 140.51952 12588 ft 367 kts 241°
2026-05-06 17:44 35.36863 140.49232 13466 ft 370 kts 240°
2026-05-06 17:44 35.35598 140.46481 14224 ft 370 kts 245°
2026-05-06 17:45 35.34878 140.43446 14898 ft 372 kts 263°
2026-05-06 17:45 35.34678 140.40296 15674 ft 371 kts 265°
2026-05-06 17:45 35.34493 140.37155 16518 ft 371 kts 265°
2026-05-06 17:45 35.34300 140.33994 17361 ft 372 kts 265°
2026-05-06 17:46 35.34099 140.30824 18149 ft 373 kts 264°
2026-05-06 17:46 35.33893 140.27681 18762 ft 377 kts 264°
2026-05-06 17:46 35.33678 140.24464 19283 ft 382 kts 264°
2026-05-06 17:46 35.33456 140.21204 19873 ft 385 kts 264°
2026-05-06 17:47 35.33231 140.17926 20494 ft 387 kts 263°
2026-05-06 17:47 35.33081 140.15752 20920 ft 388 kts 263°
2026-05-06 17:47 35.32910 140.13286 21371 ft 390 kts 263°
2026-05-06 17:47 35.32679 140.09962 21965 ft 392 kts 263°
2026-05-06 17:48 35.32446 140.06623 22598 ft 393 kts 263°
2026-05-06 17:48 35.32212 140.03288 23223 ft 394 kts 263°
2026-05-06 17:48 35.31980 139.99986 23803 ft 395 kts 262°
2026-05-06 17:48 35.31744 139.96640 24238 ft 398 kts 262°
2026-05-06 17:49 35.31444 139.93244 24660 ft 400 kts 258°
2026-05-06 17:49 35.30621 139.90012 25025 ft 399 kts 248°
2026-05-06 17:49 35.29561 139.86852 25379 ft 403 kts 248°
2026-05-06 17:49 35.28515 139.83649 25796 ft 407 kts 248°
2026-05-06 17:50 35.27478 139.80415 26228 ft 409 kts 248°
2026-05-06 17:50 35.26446 139.77161 26652 ft 412 kts 249°
2026-05-06 17:50 35.25408 139.73878 27064 ft 415 kts 249°
2026-05-06 17:50 35.24366 139.70575 27475 ft 418 kts 249°
2026-05-06 17:51 35.23311 139.67237 27871 ft 421 kts 249°
2026-05-06 17:51 35.22252 139.63888 28284 ft 424 kts 249°
2026-05-06 17:51 35.21182 139.60512 28678 ft 427 kts 249°
2026-05-06 17:51 35.20106 139.57123 29063 ft 429 kts 249°
2026-05-06 17:52 35.19135 139.53652 29400 ft 432 kts 254°
2026-05-06 17:52 35.18431 139.50071 29735 ft 435 kts 257°
2026-05-06 17:52 35.17893 139.46426 30130 ft 436 kts 260°
2026-05-06 17:52 35.17585 139.42784 30572 ft 435 kts 264°
2026-05-06 17:53 35.17413 139.39050 31074 ft 432 kts 265°
2026-05-06 17:53 35.17263 139.35441 31559 ft 430 kts 265°
2026-05-06 17:53 35.17112 139.31807 31988 ft 428 kts 265°
2026-05-06 17:53 35.16955 139.28169 32370 ft 427 kts 264°
2026-05-06 17:54 35.16790 139.24536 32767 ft 426 kts 264°
2026-05-06 17:54 35.16622 139.20931 33180 ft 424 kts 264°
2026-05-06 17:54 35.16451 139.17339 33594 ft 422 kts 264°
2026-05-06 17:54 35.16279 139.13768 33979 ft 420 kts 264°
2026-05-06 17:55 35.15929 139.06575 34101 ft 424 kts 264°
2026-05-06 17:55 35.15579 138.99402 34093 ft 420 kts 264°
2026-05-06 17:56 35.15227 138.92329 34097 ft 419 kts 264°
2026-05-06 17:56 35.14869 138.85221 34098 ft 419 kts 264°
2026-05-06 17:57 35.14506 138.78087 34101 ft 420 kts 264°
2026-05-06 17:57 35.14140 138.70960 34099 ft 421 kts 264°
2026-05-06 17:58 35.13769 138.63804 34099 ft 423 kts 264°
2026-05-06 17:58 35.13455 138.57834 34107 ft 423 kts 264°
2026-05-06 17:59 35.13074 138.50638 34105 ft 426 kts 264°
2026-05-06 17:59 35.12687 138.43406 34106 ft 427 kts 264°
2026-05-06 18:00 35.12295 138.36167 34101 ft 428 kts 264°
2026-05-06 18:00 35.11894 138.28878 34100 ft 431 kts 265°
2026-05-06 18:01 35.11491 138.21556 34110 ft 432 kts 265°
2026-05-06 18:01 35.11081 138.14220 34114 ft 434 kts 265°
2026-05-06 18:02 35.10665 138.06903 34101 ft 435 kts 265°
2026-05-06 18:02 35.10233 137.99521 34115 ft 436 kts 265°
2026-05-06 18:03 35.09796 137.92121 34113 ft 437 kts 265°
2026-05-06 18:03 35.09356 137.84699 34109 ft 439 kts 265°
2026-05-06 18:04 35.08908 137.77248 34095 ft 440 kts 265°
2026-05-06 18:04 35.08445 137.69845 34106 ft 440 kts 263°
2026-05-06 18:05 35.07279 137.62502 34103 ft 441 kts 255°
2026-05-06 18:05 35.05289 137.55409 34112 ft 442 kts 251°
2026-05-06 18:06 35.03208 137.48317 34098 ft 445 kts 251°
2026-05-06 18:06 35.01154 137.41179 34089 ft 446 kts 252°
2026-05-06 18:07 34.99123 137.34065 34097 ft 448 kts 252°
2026-05-06 18:07 34.97070 137.26892 34096 ft 449 kts 252°
2026-05-06 18:08 34.95000 137.19689 34092 ft 450 kts 251°
2026-05-06 18:08 34.92923 137.12484 34093 ft 451 kts 251°
2026-05-06 18:09 34.90842 137.05282 34096 ft 451 kts 251°
2026-05-06 18:09 34.88751 136.98062 34099 ft 452 kts 251°
2026-05-06 18:10 34.86653 136.90833 34100 ft 453 kts 251°
2026-05-06 18:10 34.84257 136.83719 34116 ft 455 kts 246°
2026-05-06 18:11 34.81551 136.76751 34104 ft 456 kts 246°
2026-05-06 18:11 34.78852 136.69799 34077 ft 458 kts 246°
2026-05-06 18:12 34.76143 136.62783 34082 ft 459 kts 246°
2026-05-06 18:12 34.73434 136.55763 34087 ft 459 kts 246°
2026-05-06 18:13 34.70713 136.48728 34085 ft 459 kts 246°
2026-05-06 18:13 34.67987 136.41695 34093 ft 459 kts 246°
2026-05-06 18:14 34.65277 136.34721 34096 ft 459 kts 246°
2026-05-06 18:14 34.62548 136.27709 34090 ft 458 kts 246°
2026-05-06 18:15 34.59825 136.20728 34102 ft 458 kts 246°
2026-05-06 18:15 34.57034 136.13777 34097 ft 458 kts 244°
2026-05-06 18:16 34.54085 136.06957 34093 ft 459 kts 243°
2026-05-06 18:16 34.51099 136.00104 34100 ft 460 kts 243°
2026-05-06 18:17 34.48118 135.93209 34091 ft 462 kts 244°
2026-05-06 18:17 34.45145 135.86308 34097 ft 463 kts 244°
2026-05-06 18:18 34.42158 135.79385 34095 ft 464 kts 244°
2026-05-06 18:18 34.39161 135.72454 34096 ft 465 kts 243°
2026-05-06 18:19 34.36152 135.65513 34090 ft 464 kts 243°
2026-05-06 18:19 34.33172 135.58651 34084 ft 463 kts 243°
2026-05-06 18:20 34.30175 135.51764 34077 ft 462 kts 243°
2026-05-06 18:20 34.27176 135.44885 34080 ft 462 kts 243°
2026-05-06 18:21 34.24170 135.38004 34084 ft 463 kts 243°
2026-05-06 18:21 34.21158 135.31124 34077 ft 464 kts 243°
2026-05-06 18:22 34.18129 135.24218 34077 ft 465 kts 243°
2026-05-06 18:22 34.15104 135.17335 34072 ft 467 kts 243°
2026-05-06 18:23 34.12055 135.10409 34068 ft 468 kts 243°
2026-05-06 18:23 34.08983 135.03448 34064 ft 469 kts 243°
2026-05-06 18:24 34.05912 134.96498 34057 ft 470 kts 243°
2026-05-06 18:24 34.02828 134.89536 34057 ft 471 kts 243°
2026-05-06 18:25 33.99734 134.82576 34055 ft 471 kts 243°
2026-05-06 18:25 33.96634 134.75612 34056 ft 471 kts 243°
2026-05-06 18:26 33.93559 134.68715 34048 ft 471 kts 243°
2026-05-06 18:26 33.90459 134.61775 34057 ft 471 kts 243°
2026-05-06 18:27 33.87351 134.54829 34057 ft 471 kts 243°
2026-05-06 18:27 33.84233 134.47877 34064 ft 472 kts 243°
2026-05-06 18:28 33.81107 134.40920 34065 ft 473 kts 243°
2026-05-06 18:28 33.77967 134.33943 34066 ft 474 kts 243°
2026-05-06 18:29 33.74819 134.26969 34070 ft 475 kts 243°
2026-05-06 18:29 33.71663 134.19985 34071 ft 476 kts 243°
2026-05-06 18:30 33.68518 134.13042 34075 ft 476 kts 242°
2026-05-06 18:30 33.65345 134.06049 34065 ft 477 kts 242°
2026-05-06 18:31 33.62166 133.99059 34064 ft 478 kts 242°
2026-05-06 18:31 33.58970 133.92043 34057 ft 478 kts 242°
2026-05-06 18:32 33.55790 133.85075 34052 ft 480 kts 242°
2026-05-06 18:32 33.52557 133.78008 34051 ft 481 kts 242°
2026-05-06 18:33 33.49358 133.71027 34053 ft 482 kts 242°
2026-05-06 18:33 33.46128 133.63993 34047 ft 482 kts 242°
2026-05-06 18:34 33.42887 133.56950 34053 ft 482 kts 242°
2026-05-06 18:34 33.39641 133.49908 34068 ft 483 kts 242°
2026-05-06 18:35 33.36389 133.42867 34074 ft 484 kts 242°
2026-05-06 18:35 33.33128 133.35821 34057 ft 484 kts 242°
2026-05-06 18:36 33.29881 133.28816 34078 ft 484 kts 242°
2026-05-06 18:36 33.26608 133.21769 34076 ft 485 kts 242°
2026-05-06 18:37 33.23605 133.16038 34081 ft 486 kts 236°
2026-05-06 18:37 33.19036 133.08371 34079 ft 487 kts 236°
2026-05-06 18:38 33.15102 133.01755 34063 ft 488 kts 236°
2026-05-06 18:38 33.11211 132.95161 34073 ft 489 kts 236°
2026-05-06 18:39 33.07298 132.88528 34055 ft 489 kts 236°
2026-05-06 18:40 33.01405 132.78571 34052 ft 490 kts 236°
2026-05-06 18:40 32.97494 132.71968 34067 ft 490 kts 236°
2026-05-06 18:41 32.93558 132.65331 34063 ft 490 kts 236°
2026-05-06 18:41 32.89624 132.58705 34053 ft 490 kts 236°
2026-05-06 18:42 32.85671 132.52061 34055 ft 491 kts 236°
2026-05-06 18:42 32.81741 132.45467 34052 ft 491 kts 236°
2026-05-06 18:43 32.77786 132.38842 34051 ft 491 kts 236°
2026-05-06 18:43 32.73824 132.32218 34050 ft 492 kts 236°
2026-05-06 18:44 32.69852 132.25587 34042 ft 492 kts 236°
2026-05-06 18:44 32.65904 132.19009 34048 ft 492 kts 236°
2026-05-06 18:45 32.61996 132.12349 34041 ft 492 kts 237°
2026-05-06 18:45 32.58102 132.05652 34048 ft 492 kts 237°
2026-05-06 18:46 32.54192 131.99013 34042 ft 492 kts 237°
2026-05-06 18:46 32.50260 131.92363 34046 ft 492 kts 237°
2026-05-06 18:47 32.46329 131.85719 34045 ft 492 kts 237°
2026-05-06 18:47 32.43063 131.80202 34048 ft 492 kts 237°
2026-05-06 18:48 32.38488 131.72484 34043 ft 492 kts 237°
2026-05-06 18:48 32.34549 131.65853 34051 ft 492 kts 237°
2026-05-06 18:49 32.31274 131.60347 34051 ft 492 kts 237°
2026-05-06 18:49 32.27330 131.53730 34046 ft 492 kts 237°
2026-05-06 18:50 32.23383 131.47117 34052 ft 492 kts 237°
2026-05-06 18:50 32.19461 131.40558 34059 ft 491 kts 237°
2026-05-06 18:51 32.15514 131.33970 34057 ft 491 kts 237°
2026-05-06 18:51 32.11562 131.27384 34053 ft 491 kts 237°
2026-05-06 18:52 32.07607 131.20804 34059 ft 492 kts 237°
2026-05-06 18:52 32.03648 131.14229 34057 ft 492 kts 237°
2026-05-06 18:53 31.99699 131.07683 34057 ft 492 kts 237°
2026-05-06 18:53 31.95732 131.01117 34059 ft 492 kts 237°
2026-05-06 18:54 31.91752 130.94541 34057 ft 492 kts 237°
2026-05-06 18:54 31.87799 130.88021 34052 ft 492 kts 237°
2026-05-06 18:55 31.83820 130.81469 34051 ft 492 kts 237°
2026-05-06 18:55 31.79833 130.74914 34047 ft 493 kts 237°
2026-05-06 18:56 31.75840 130.68361 34043 ft 493 kts 237°
2026-05-06 18:56 31.71835 130.61797 34041 ft 493 kts 237°
2026-05-06 18:57 31.67798 130.55271 34036 ft 494 kts 235°
2026-05-06 18:57 31.63614 130.48920 34033 ft 495 kts 234°
2026-05-06 18:58 31.59373 130.42553 34029 ft 495 kts 234°
2026-05-06 18:58 31.55152 130.36168 34032 ft 495 kts 234°
2026-05-06 18:59 31.50941 130.29778 34025 ft 495 kts 234°
2026-05-06 18:59 31.46735 130.23404 34025 ft 494 kts 234°
2026-05-06 19:00 31.42520 130.17029 34020 ft 494 kts 234°
2026-05-06 19:00 31.38317 130.10684 34024 ft 493 kts 234°
2026-05-06 19:01 31.34116 130.04352 34024 ft 492 kts 234°
2026-05-06 19:01 31.29942 129.98068 34021 ft 492 kts 234°
2026-05-06 19:02 31.25731 129.91748 34022 ft 492 kts 234°
2026-05-06 19:02 31.21524 129.85453 34018 ft 491 kts 234°
2026-05-06 19:03 31.17314 129.79159 34024 ft 491 kts 234°
2026-05-06 19:03 31.13105 129.72875 34010 ft 491 kts 234°
2026-05-06 19:04 31.08901 129.66606 34013 ft 490 kts 234°
2026-05-06 19:04 31.04693 129.60342 34020 ft 490 kts 234°
2026-05-06 19:05 31.00513 129.54132 34008 ft 489 kts 234°
2026-05-06 19:05 30.96309 129.47894 34009 ft 489 kts 234°
2026-05-06 19:06 30.92107 129.41668 34011 ft 489 kts 234°
2026-05-06 19:06 30.87905 129.35453 34007 ft 488 kts 234°
2026-05-06 19:07 30.83693 129.29232 34021 ft 488 kts 234°
2026-05-06 19:07 30.79487 129.23028 34001 ft 487 kts 234°
2026-05-06 19:08 30.75307 129.16828 34002 ft 487 kts 235°
2026-05-06 19:08 30.71199 129.10568 34005 ft 486 kts 235°
2026-05-06 19:09 30.67108 129.04312 34013 ft 486 kts 235°
2026-05-06 19:09 30.63002 128.98065 34015 ft 486 kts 235°
2026-05-06 19:10 30.58914 128.91869 34009 ft 486 kts 235°
2026-05-06 19:10 30.54804 128.85652 34009 ft 485 kts 235°
2026-05-06 19:11 30.50692 128.79442 34010 ft 485 kts 235°
2026-05-06 19:11 30.46578 128.73238 34006 ft 485 kts 235°
2026-05-06 19:12 30.42462 128.67041 34003 ft 485 kts 235°
2026-05-06 19:12 30.38352 128.60860 34004 ft 484 kts 235°
2026-05-06 19:13 30.34231 128.54675 34000 ft 484 kts 235°
2026-05-06 19:13 30.30145 128.48550 34001 ft 484 kts 235°
2026-05-06 19:14 30.26031 128.42394 33997 ft 483 kts 235°
2026-05-06 19:14 30.21911 128.36238 33999 ft 483 kts 234°
2026-05-06 19:15 30.17789 128.30087 33996 ft 483 kts 235°
2026-05-06 19:15 30.13677 128.23961 33998 ft 482 kts 235°
2026-05-06 19:16 30.09564 128.17844 33998 ft 482 kts 235°
2026-05-06 19:16 30.05451 128.11735 34002 ft 481 kts 234°
2026-05-06 19:17 30.01337 128.05633 34000 ft 481 kts 234°
2026-05-06 19:17 29.97249 127.99581 33996 ft 481 kts 234°
2026-05-06 19:18 29.93136 127.93497 33998 ft 480 kts 234°
2026-05-06 19:18 29.89019 127.87417 34001 ft 480 kts 234°
2026-05-06 19:19 29.84883 127.81384 33994 ft 480 kts 233°
2026-05-06 19:19 29.80524 127.75554 33998 ft 480 kts 231°
2026-05-06 19:20 29.76130 127.69770 34000 ft 479 kts 232°
2026-05-06 19:20 29.71770 127.63963 33993 ft 479 kts 232°
2026-05-06 19:21 29.67426 127.58150 33994 ft 479 kts 232°
2026-05-06 19:21 29.63091 127.52357 33996 ft 478 kts 232°
2026-05-06 19:22 29.58774 127.46601 33997 ft 478 kts 232°
2026-05-06 19:22 29.54575 127.40699 33998 ft 476 kts 234°
2026-05-06 19:23 29.50500 127.34703 33993 ft 475 kts 234°
2026-05-06 19:23 29.46425 127.28740 33995 ft 474 kts 234°
2026-05-06 19:24 29.42327 127.22805 33995 ft 474 kts 234°
2026-05-06 19:24 29.38250 127.16929 33995 ft 473 kts 234°
2026-05-06 19:25 29.34148 127.11025 33999 ft 473 kts 234°
2026-05-06 19:25 29.30051 127.05134 34000 ft 472 kts 234°
2026-05-06 19:26 29.25955 126.99251 33998 ft 472 kts 234°
2026-05-06 19:26 29.21865 126.93386 34000 ft 472 kts 234°
2026-05-06 19:27 29.17764 126.87514 34003 ft 471 kts 234°
2026-05-06 19:27 29.13674 126.81664 33999 ft 471 kts 234°
2026-05-06 19:28 29.09598 126.75845 33995 ft 471 kts 234°
2026-05-06 19:28 29.05500 126.69999 34000 ft 471 kts 234°
2026-05-06 19:29 29.01405 126.64167 34000 ft 471 kts 234°
2026-05-06 19:29 28.97301 126.58331 34001 ft 471 kts 234°
2026-05-06 19:30 28.93116 126.52572 34003 ft 471 kts 233°
2026-05-06 19:30 28.88858 126.46878 34004 ft 472 kts 233°
2026-05-06 19:31 28.84606 126.41178 34001 ft 472 kts 233°
2026-05-06 19:31 28.78243 126.32616 34006 ft 472 kts 233°
2026-05-06 19:32 28.73994 126.26904 34009 ft 472 kts 233°
2026-05-06 19:32 28.69771 126.21236 34003 ft 472 kts 233°
2026-05-06 19:33 28.65518 126.15536 34007 ft 472 kts 233°
2026-05-06 19:33 28.61287 126.09791 34225 ft 474 kts 234°
2026-05-06 19:34 28.59222 126.06883 34634 ft 471 kts 234°
2026-05-06 19:34 28.57183 126.03986 35045 ft 468 kts 235°
2026-05-06 19:34 28.55148 126.01094 35429 ft 466 kts 235°
2026-05-06 19:34 28.53127 125.98227 35774 ft 464 kts 235°
2026-05-06 19:35 28.51100 125.95360 35937 ft 466 kts 235°
2026-05-06 19:35 28.49061 125.92483 35978 ft 468 kts 234°
2026-05-06 19:35 28.44980 125.86747 35997 ft 465 kts 234°
2026-05-06 19:36 28.40916 125.81050 36004 ft 463 kts 234°
2026-05-06 19:36 28.37550 125.76335 36006 ft 461 kts 234°
2026-05-06 19:37 28.33502 125.70671 36008 ft 461 kts 234°
2026-05-06 19:37 28.29458 125.65018 36021 ft 461 kts 234°
2026-05-06 19:38 28.25408 125.59364 36019 ft 462 kts 234°
2026-05-06 19:38 28.21348 125.53706 36000 ft 463 kts 234°
2026-05-06 19:39 28.17276 125.48038 36016 ft 464 kts 234°
2026-05-06 19:39 28.13220 125.42400 36016 ft 465 kts 234°
2026-05-06 19:40 28.09120 125.36709 36010 ft 465 kts 234°
2026-05-06 19:40 28.05024 125.31031 36002 ft 466 kts 234°
2026-05-06 19:41 28.00919 125.25348 36010 ft 466 kts 234°
2026-05-06 19:41 27.96813 125.19670 36010 ft 466 kts 234°
2026-05-06 19:42 27.92708 125.14002 36005 ft 466 kts 234°
2026-05-06 19:42 27.88593 125.08328 36003 ft 466 kts 234°
2026-05-06 19:43 27.84480 125.02663 36004 ft 465 kts 234°
2026-05-06 19:43 27.80370 124.97010 36005 ft 465 kts 234°
2026-05-06 19:44 27.76264 124.91369 36001 ft 465 kts 234°
2026-05-06 19:44 27.72179 124.85765 36007 ft 464 kts 234°
2026-05-06 19:45 27.68071 124.80135 36005 ft 464 kts 234°
2026-05-06 19:45 27.63962 124.74510 36003 ft 464 kts 234°
2026-05-06 19:46 27.59853 124.68893 36003 ft 464 kts 234°
2026-05-06 19:46 27.55749 124.63273 36003 ft 464 kts 234°
2026-05-06 19:47 27.51638 124.57647 36004 ft 464 kts 234°
2026-05-06 19:47 27.47554 124.52066 36003 ft 464 kts 234°
2026-05-06 19:48 27.43444 124.46457 35997 ft 464 kts 234°
2026-05-06 19:48 27.39329 124.40850 36000 ft 464 kts 233°
2026-05-06 19:49 27.35208 124.35240 36001 ft 464 kts 233°
2026-05-06 19:49 27.31090 124.29642 35997 ft 464 kts 233°
2026-05-06 19:50 27.26971 124.24051 35996 ft 464 kts 233°
2026-05-06 19:50 27.22853 124.18467 35994 ft 464 kts 233°
2026-05-06 19:51 27.18764 124.12929 35989 ft 463 kts 233°
2026-05-06 19:51 27.14629 124.07336 35994 ft 463 kts 233°
2026-05-06 19:52 27.10546 124.01819 35994 ft 462 kts 233°
2026-05-06 19:52 27.06422 123.96288 35988 ft 462 kts 233°
2026-05-06 19:53 27.02270 123.90789 35993 ft 461 kts 233°
2026-05-06 19:53 26.98115 123.85291 35989 ft 461 kts 233°
2026-05-06 19:54 26.93968 123.79802 35987 ft 461 kts 233°
2026-05-06 19:54 26.89851 123.74354 35990 ft 461 kts 233°
2026-05-06 19:55 26.85710 123.68882 35991 ft 460 kts 233°
2026-05-06 19:55 26.81565 123.63413 35989 ft 461 kts 233°
2026-05-06 19:56 26.77413 123.57938 35977 ft 461 kts 233°
2026-05-06 19:56 26.73258 123.52468 35993 ft 461 kts 233°
2026-05-06 19:57 26.69101 123.47001 35986 ft 461 kts 233°
2026-05-06 19:57 26.64932 123.41526 35986 ft 462 kts 233°
2026-05-06 19:58 26.60787 123.36084 35981 ft 463 kts 233°
2026-05-06 19:58 26.56605 123.30597 35985 ft 463 kts 233°
2026-05-06 19:59 26.52425 123.25118 35973 ft 464 kts 233°
2026-05-06 19:59 26.48256 123.19660 35980 ft 464 kts 233°
2026-05-06 20:00 26.44061 123.14174 35972 ft 464 kts 233°
2026-05-06 20:00 26.39858 123.08686 35977 ft 465 kts 233°
2026-05-06 20:01 26.35651 123.03195 35978 ft 465 kts 233°
2026-05-06 20:01 26.31435 122.97708 35971 ft 466 kts 233°
2026-05-06 20:02 26.27208 122.92232 35974 ft 466 kts 233°
2026-05-06 20:02 26.23002 122.86793 35969 ft 466 kts 233°
2026-05-06 20:03 26.18767 122.81317 35966 ft 466 kts 233°
2026-05-06 20:03 26.14526 122.75840 35971 ft 466 kts 233°
2026-05-06 20:04 26.10284 122.70366 35966 ft 466 kts 232°
2026-05-06 20:04 26.06047 122.64908 35964 ft 466 kts 232°
2026-05-06 20:05 26.01806 122.59449 35966 ft 466 kts 232°
2026-05-06 20:05 25.97570 122.54001 35964 ft 466 kts 232°
2026-05-06 20:06 25.93360 122.48594 35960 ft 465 kts 232°
2026-05-06 20:06 25.89131 122.43149 35960 ft 465 kts 232°
2026-05-06 20:07 25.84910 122.37710 35961 ft 465 kts 233°
2026-05-06 20:07 25.80691 122.32281 35961 ft 465 kts 232°
2026-05-06 20:08 25.76464 122.26851 35956 ft 464 kts 233°
2026-05-06 20:08 25.72240 122.21430 35955 ft 464 kts 233°
2026-05-06 20:09 25.68015 122.16015 35959 ft 464 kts 233°
2026-05-06 20:09 25.63786 122.10598 35951 ft 464 kts 233°
2026-05-06 20:10 25.59553 122.05192 35954 ft 464 kts 232°
2026-05-06 20:10 25.55304 121.99791 35950 ft 464 kts 232°
2026-05-06 20:11 25.51062 121.94403 35948 ft 465 kts 232°
2026-05-06 20:11 25.46808 121.89002 35948 ft 465 kts 233°
2026-05-06 20:12 25.42584 121.83644 35943 ft 465 kts 232°
2026-05-06 20:12 25.38329 121.78253 35944 ft 465 kts 232°
2026-05-06 20:13 25.34074 121.72869 35941 ft 465 kts 232°
2026-05-06 20:13 25.29807 121.67475 35945 ft 465 kts 232°
2026-05-06 20:14 25.25539 121.62085 35947 ft 466 kts 232°
2026-05-06 20:14 25.21269 121.56698 35945 ft 466 kts 232°
2026-05-06 20:15 25.17000 121.51318 35943 ft 465 kts 233°
2026-05-06 20:15 25.12803 121.45902 35951 ft 465 kts 233°
2026-05-06 20:16 25.08624 121.40464 35952 ft 465 kts 233°
2026-05-06 20:16 25.04454 121.35060 35965 ft 465 kts 233°
2026-05-06 20:17 25.00236 121.29612 35963 ft 466 kts 233°
2026-05-06 20:17 24.96021 121.24176 35960 ft 467 kts 233°
2026-05-06 20:18 24.91790 121.18725 35956 ft 467 kts 233°
2026-05-06 20:18 24.87597 121.13327 35957 ft 467 kts 233°
2026-05-06 20:19 24.83371 121.07895 35956 ft 467 kts 233°
2026-05-06 20:19 24.79154 121.02465 35965 ft 467 kts 233°
2026-05-06 20:20 24.74933 120.97025 35963 ft 466 kts 233°
2026-05-06 20:20 24.70718 120.91598 35967 ft 466 kts 233°
2026-05-06 20:21 24.66502 120.86178 35968 ft 466 kts 233°
2026-05-06 20:21 24.62284 120.80761 35970 ft 466 kts 233°
2026-05-06 20:22 24.58096 120.75388 35969 ft 466 kts 233°
2026-05-06 20:22 24.53768 120.70076 35974 ft 467 kts 230°
2026-05-06 20:23 24.49237 120.64948 35972 ft 468 kts 229°
2026-05-06 20:23 24.44690 120.59828 35979 ft 468 kts 229°
2026-05-06 20:24 24.40161 120.54698 35984 ft 468 kts 230°
2026-05-06 20:24 24.36398 120.50426 35984 ft 468 kts 230°
2026-05-06 20:25 24.31870 120.45290 35983 ft 468 kts 229°
2026-05-06 20:25 24.27336 120.40154 35978 ft 469 kts 229°
2026-05-06 20:26 24.22798 120.35019 35972 ft 469 kts 230°
2026-05-06 20:26 24.18291 120.29840 35964 ft 469 kts 230°
2026-05-06 20:27 24.13764 120.24684 35956 ft 470 kts 230°
2026-05-06 20:27 24.09218 120.19525 35956 ft 470 kts 229°
2026-05-06 20:28 24.04713 120.14409 35952 ft 470 kts 230°
2026-05-06 20:28 24.00168 120.09252 35953 ft 470 kts 229°
2026-05-06 20:29 23.95603 120.04111 35955 ft 471 kts 229°
2026-05-06 20:29 23.91026 119.98978 35953 ft 471 kts 229°
2026-05-06 20:30 23.84161 119.91278 35956 ft 471 kts 229°
2026-05-06 20:31 23.79607 119.86174 35958 ft 471 kts 229°
2026-05-06 20:31 23.75027 119.81046 35962 ft 472 kts 229°
2026-05-06 20:32 23.70444 119.75920 35963 ft 472 kts 229°
2026-05-06 20:32 23.65859 119.70797 35962 ft 472 kts 229°
2026-05-06 20:33 23.61272 119.65660 35959 ft 471 kts 231°
2026-05-06 20:33 23.57300 119.60079 35958 ft 467 kts 240°
2026-05-06 20:34 23.53858 119.54065 35954 ft 467 kts 241°
2026-05-06 20:34 23.50420 119.48056 35955 ft 467 kts 240°
2026-05-06 20:35 23.46943 119.42038 35973 ft 468 kts 240°
2026-05-06 20:35 23.43468 119.36056 35967 ft 468 kts 240°
2026-05-06 20:36 23.39981 119.30064 35955 ft 468 kts 240°
2026-05-06 20:36 23.36509 119.24104 35958 ft 469 kts 240°
2026-05-06 20:37 23.33017 119.18115 35959 ft 469 kts 240°
2026-05-06 20:37 23.29514 119.12114 35954 ft 469 kts 240°
2026-05-06 20:38 23.26012 119.06123 35962 ft 469 kts 240°
2026-05-06 20:38 23.22527 119.00166 35962 ft 469 kts 240°
2026-05-06 20:39 23.19017 118.94175 35961 ft 469 kts 240°
2026-05-06 20:39 23.15503 118.88183 35961 ft 469 kts 240°
2026-05-06 20:40 23.11988 118.82195 35952 ft 469 kts 240°
2026-05-06 20:40 23.08471 118.76213 35962 ft 469 kts 240°
2026-05-06 20:41 23.04978 118.70277 35961 ft 469 kts 240°
2026-05-06 20:41 23.01462 118.64309 35959 ft 469 kts 240°
2026-05-06 20:42 22.97938 118.58332 35960 ft 469 kts 240°
2026-05-06 20:42 22.94411 118.52362 35961 ft 469 kts 240°
2026-05-06 20:43 22.90870 118.46406 35954 ft 469 kts 240°
2026-05-06 20:43 22.87352 118.40499 35958 ft 470 kts 240°
2026-05-06 20:44 22.83802 118.34539 35952 ft 470 kts 240°
2026-05-06 20:44 22.80259 118.28596 35960 ft 470 kts 240°
2026-05-06 20:45 22.76702 118.22635 35959 ft 470 kts 240°
2026-05-06 20:45 22.73149 118.16688 35953 ft 470 kts 240°
2026-05-06 20:46 22.69617 118.10783 35963 ft 470 kts 240°
2026-05-06 20:46 22.66053 118.04831 35960 ft 470 kts 240°
2026-05-06 20:47 22.62495 117.98894 35954 ft 470 kts 240°
2026-05-06 20:47 22.58931 117.92948 35958 ft 470 kts 240°
2026-05-06 20:48 22.55387 117.86991 35955 ft 470 kts 240°
2026-05-06 20:48 22.51842 117.81032 35951 ft 470 kts 240°
2026-05-06 20:49 22.48313 117.75110 35954 ft 470 kts 240°
2026-05-06 20:49 22.44764 117.69165 35953 ft 470 kts 240°
2026-05-06 20:50 22.41210 117.63217 35954 ft 470 kts 240°
2026-05-06 20:50 22.37678 117.57311 35951 ft 470 kts 240°
2026-05-06 20:51 22.34548 117.51155 35943 ft 465 kts 252°
2026-05-06 20:51 22.33108 117.44391 35951 ft 461 kts 268°
2026-05-06 20:52 22.32959 117.37514 35952 ft 460 kts 270°
2026-05-06 20:52 22.32911 117.30594 35952 ft 461 kts 270°
2026-05-06 20:53 22.32825 117.23668 35954 ft 461 kts 270°
2026-05-06 20:53 22.32703 117.16735 35952 ft 461 kts 270°
2026-05-06 20:54 22.32568 117.09805 35956 ft 461 kts 270°
2026-05-06 20:54 22.32431 117.02919 35954 ft 461 kts 270°
2026-05-06 20:55 22.32291 116.95989 35957 ft 461 kts 270°
2026-05-06 20:55 22.32150 116.89067 35952 ft 461 kts 270°
2026-05-06 20:56 22.32005 116.82152 35953 ft 460 kts 270°
2026-05-06 20:56 22.31858 116.75240 35953 ft 460 kts 270°
2026-05-06 20:57 22.31709 116.68380 35951 ft 459 kts 270°
2026-05-06 20:57 22.31557 116.61494 35953 ft 458 kts 270°
2026-05-06 20:58 22.31401 116.54607 35955 ft 458 kts 270°
2026-05-06 20:58 22.31243 116.47734 35954 ft 458 kts 270°
2026-05-06 20:59 22.31082 116.40854 35953 ft 458 kts 270°
2026-05-06 20:59 22.30919 116.34028 35948 ft 457 kts 270°
2026-05-06 21:00 22.30752 116.27134 35934 ft 450 kts 270°
2026-05-06 21:00 22.30669 116.23804 35405 ft 450 kts 270°
2026-05-06 21:00 22.30586 116.20432 34779 ft 450 kts 270°
2026-05-06 21:00 22.30501 116.17030 34029 ft 452 kts 270°
2026-05-06 21:01 22.30416 116.13624 33169 ft 456 kts 270°
2026-05-06 21:01 22.30330 116.10213 32595 ft 452 kts 270°
2026-05-06 21:01 22.30243 116.06823 32006 ft 450 kts 270°
2026-05-06 21:01 22.30155 116.03448 31443 ft 448 kts 270°
2026-05-06 21:02 22.30068 116.00102 30900 ft 445 kts 270°
2026-05-06 21:02 22.29981 115.96767 30351 ft 443 kts 270°
2026-05-06 21:02 22.29893 115.93441 29762 ft 442 kts 270°
2026-05-06 21:02 22.29805 115.90130 29155 ft 439 kts 270°
2026-05-06 21:03 22.29719 115.86882 28584 ft 436 kts 270°
2026-05-06 21:03 22.29630 115.83622 28040 ft 432 kts 269°
2026-05-06 21:03 22.29547 115.80391 27500 ft 429 kts 270°
2026-05-06 21:03 22.29477 115.77180 26979 ft 426 kts 270°
2026-05-06 21:04 22.29410 115.73984 26451 ft 423 kts 269°
2026-05-06 21:04 22.29341 115.70827 25935 ft 420 kts 269°
2026-05-06 21:04 22.29270 115.67711 25418 ft 418 kts 269°
2026-05-06 21:04 22.29187 115.64576 24893 ft 416 kts 269°
2026-05-06 21:05 22.29099 115.61468 24385 ft 414 kts 268°
2026-05-06 21:05 22.29010 115.58366 23880 ft 412 kts 268°
2026-05-06 21:05 22.28921 115.55283 23350 ft 411 kts 268°
2026-05-06 21:05 22.28834 115.52206 22784 ft 408 kts 268°
2026-05-06 21:06 22.28746 115.49152 22272 ft 405 kts 268°
2026-05-06 21:06 22.28660 115.46130 21775 ft 402 kts 268°
2026-05-06 21:06 22.28574 115.43125 21292 ft 398 kts 268°
2026-05-06 21:06 22.28488 115.40151 20812 ft 395 kts 268°
2026-05-06 21:07 22.28402 115.37191 20340 ft 392 kts 268°
2026-05-06 21:07 22.28317 115.34259 19870 ft 390 kts 268°
2026-05-06 21:07 22.28229 115.31333 19391 ft 387 kts 268°
2026-05-06 21:07 22.28141 115.28430 18913 ft 386 kts 268°
2026-05-06 21:08 22.28053 115.25583 18447 ft 384 kts 268°
2026-05-06 21:08 22.27964 115.22705 17935 ft 382 kts 268°
2026-05-06 21:08 22.27875 115.19840 17436 ft 379 kts 268°
2026-05-06 21:08 22.27787 115.17010 16957 ft 376 kts 268°
2026-05-06 21:09 22.27699 115.14206 16490 ft 372 kts 268°
2026-05-06 21:09 22.27611 115.11423 16036 ft 369 kts 267°
2026-05-06 21:09 22.27524 115.08666 15585 ft 366 kts 267°
2026-05-06 21:09 22.27437 115.05935 15138 ft 362 kts 267°
2026-05-06 21:10 22.27351 115.03223 14692 ft 360 kts 267°
2026-05-06 21:10 22.27264 115.00535 14238 ft 357 kts 267°
2026-05-06 21:10 22.27178 114.97863 13795 ft 355 kts 267°
2026-05-06 21:10 22.27093 114.95244 13314 ft 352 kts 267°
2026-05-06 21:11 22.27007 114.92612 12855 ft 349 kts 267°
2026-05-06 21:11 22.26919 114.90006 12419 ft 346 kts 267°
2026-05-06 21:11 22.26828 114.87426 11993 ft 342 kts 267°
2026-05-06 21:11 22.26738 114.84865 11559 ft 339 kts 267°
2026-05-06 21:12 22.26649 114.82332 11194 ft 334 kts 267°
2026-05-06 21:12 22.26510 114.79889 11037 ft 317 kts 259°
2026-05-06 21:12 22.25765 114.77716 10890 ft 305 kts 240°
2026-05-06 21:12 22.24465 114.75907 10793 ft 310 kts 226°
2026-05-06 21:13 22.22887 114.74249 10671 ft 320 kts 224°
2026-05-06 21:13 22.21294 114.72647 10528 ft 313 kts 224°
2026-05-06 21:13 22.19704 114.71055 10353 ft 303 kts 224°
2026-05-06 21:13 22.18190 114.69531 10202 ft 292 kts 224°
2026-05-06 21:14 22.16753 114.68075 10060 ft 282 kts 224°
2026-05-06 21:14 22.15353 114.66649 9923 ft 271 kts 224°
2026-05-06 21:14 22.13998 114.65264 9803 ft 266 kts 224°
2026-05-06 21:14 22.12648 114.63881 9671 ft 270 kts 224°
2026-05-06 21:15 22.11740 114.62949 9579 ft 273 kts 224°
2026-05-06 21:15 22.10350 114.61525 9459 ft 276 kts 224°
2026-05-06 21:15 22.08966 114.60105 9302 ft 275 kts 224°
2026-05-06 21:15 22.07584 114.58687 9183 ft 273 kts 224°
2026-05-06 21:16 22.06207 114.57276 9050 ft 272 kts 224°
2026-05-06 21:16 22.04834 114.55869 8914 ft 271 kts 224°
2026-05-06 21:16 22.03469 114.54471 8785 ft 270 kts 224°
2026-05-06 21:16 22.02202 114.53008 8633 ft 265 kts 238°
2026-05-06 21:17 22.01431 114.51228 8524 ft 263 kts 248°
2026-05-06 21:17 22.00742 114.49375 8418 ft 269 kts 247°
2026-05-06 21:17 22.00040 114.47502 8267 ft 270 kts 247°
2026-05-06 21:17 21.99344 114.45651 8148 ft 269 kts 247°
2026-05-06 21:18 21.98638 114.43785 8017 ft 268 kts 247°
2026-05-06 21:18 21.97932 114.41927 7881 ft 268 kts 247°
2026-05-06 21:18 21.97226 114.40074 7754 ft 266 kts 246°
2026-05-06 21:18 21.96523 114.38232 7624 ft 265 kts 246°
2026-05-06 21:19 21.95821 114.36397 7499 ft 264 kts 246°
2026-05-06 21:19 21.95120 114.34567 7368 ft 264 kts 246°
2026-05-06 21:19 21.94420 114.32740 7237 ft 263 kts 246°
2026-05-06 21:19 21.93722 114.30920 7120 ft 263 kts 246°
2026-05-06 21:20 21.93023 114.29099 6988 ft 263 kts 246°
2026-05-06 21:20 21.92327 114.27284 6860 ft 262 kts 246°
2026-05-06 21:20 21.91629 114.25466 6746 ft 262 kts 246°
2026-05-06 21:20 21.90932 114.23654 6601 ft 262 kts 246°
2026-05-06 21:21 21.90241 114.21857 6497 ft 262 kts 246°
2026-05-06 21:21 21.89661 114.19988 6328 ft 260 kts 263°
2026-05-06 21:21 21.89860 114.18085 6216 ft 262 kts 288°
2026-05-06 21:21 21.90664 114.16316 6103 ft 266 kts 296°
2026-05-06 21:22 21.91583 114.14550 5980 ft 272 kts 297°
2026-05-06 21:22 21.92517 114.12773 5838 ft 272 kts 297°
2026-05-06 21:22 21.93445 114.11007 5702 ft 271 kts 297°
2026-05-06 21:22 21.94369 114.09243 5564 ft 269 kts 297°
2026-05-06 21:23 21.95284 114.07490 5435 ft 268 kts 297°
2026-05-06 21:23 21.96191 114.05746 5303 ft 266 kts 297°
2026-05-06 21:23 21.97091 114.04009 5168 ft 265 kts 297°
2026-05-06 21:23 21.97989 114.02276 5046 ft 264 kts 297°
2026-05-06 21:24 21.98872 114.00568 4915 ft 264 kts 297°
2026-05-06 21:24 21.99775 113.98820 4790 ft 264 kts 297°
2026-05-06 21:24 22.00654 113.97115 4674 ft 264 kts 297°
2026-05-06 21:24 22.01547 113.95383 4525 ft 265 kts 297°
2026-05-06 21:25 22.02445 113.93642 4415 ft 266 kts 297°
2026-05-06 21:25 22.03342 113.91899 4258 ft 267 kts 297°
2026-05-06 21:25 22.04245 113.90146 4149 ft 267 kts 297°
2026-05-06 21:25 22.05150 113.88389 4018 ft 268 kts 297°
2026-05-06 21:26 22.06052 113.86636 3882 ft 267 kts 297°
2026-05-06 21:26 22.06954 113.84884 3751 ft 266 kts 297°
2026-05-06 21:26 22.07849 113.83145 3644 ft 265 kts 297°
2026-05-06 21:26 22.08744 113.81404 3497 ft 264 kts 298°
2026-05-06 21:27 22.09624 113.79693 3385 ft 263 kts 298°
2026-05-06 21:27 22.10559 113.78020 3235 ft 257 kts 310°
2026-05-06 21:27 22.11954 113.76923 3087 ft 240 kts 336°
2026-05-06 21:27 22.13430 113.76224 2976 ft 225 kts 336°
2026-05-06 21:28 22.14814 113.75530 2862 ft 217 kts 335°
2026-05-06 21:28 22.16184 113.74844 2787 ft 216 kts 336°
2026-05-06 21:28 22.17549 113.74162 2689 ft 216 kts 335°
2026-05-06 21:28 22.18918 113.73478 2592 ft 218 kts 336°
2026-05-06 21:29 22.20300 113.72803 2476 ft 216 kts 342°
2026-05-06 21:29 22.21744 113.72715 2341 ft 207 kts 22°
2026-05-06 21:29 22.23005 113.73454 2311 ft 209 kts 35°
2026-05-06 21:29 22.24204 113.74287 2168 ft 204 kts 35°
2026-05-06 21:30 22.25365 113.75094 2115 ft 192 kts 35°
2026-05-06 21:30 22.26339 113.75995 2023 ft 178 kts 61°
2026-05-06 21:30 22.26842 113.77127 1918 ft 160 kts 66°
2026-05-06 21:30 22.27295 113.78169 1851 ft 148 kts 69°
2026-05-06 21:31 22.27675 113.79208 1778 ft 149 kts 73°
2026-05-06 21:31 22.28024 113.80261 1689 ft 148 kts 73°
2026-05-06 21:31 22.28361 113.81300 1662 ft 147 kts 73°
2026-05-06 21:31 22.28704 113.82371 1448 ft 152 kts 73°
2026-05-06 21:32 22.29044 113.83425 1255 ft 149 kts 73°
2026-05-06 21:32 22.29713 113.85509 881 ft 147 kts 73°
2026-05-06 21:32 22.30047 113.86552 692 ft 146 kts 72°
2026-05-06 21:33 22.30379 113.87586 513 ft 144 kts 73°
2026-05-06 21:33 22.30714 113.88613 313 ft 146 kts 71°
2026-05-06 21:33 22.31042 113.89630 113 ft 143 kts 72°
2026-05-06 21:33 22.31355 113.90608 42 ft 128 kts 71°
2026-05-06 21:34 22.31610 113.91400 43 ft 90 kts 70°
2026-05-06 21:34 22.31763 113.91871 41 ft 51 kts 71°
2026-05-06 21:34 22.31791 113.92146 41 ft 25 kts 100°
2026-05-06 21:34 22.31772 113.92253 41 ft 3 kts 100°
2026-05-06 21:35 22.31769 113.92270 41 ft 4 kts 105°
2026-05-06 21:35 22.31714 113.92279 41 ft 16 kts 227°
2026-05-06 21:35 22.31659 113.92113 41 ft 23 kts 251°
2026-05-06 21:35 22.31599 113.92035 41 ft 13 kts 185°
2026-05-06 21:36 22.31512 113.92060 41 ft 13 kts 161°
2026-05-06 21:36 22.31427 113.92092 41 ft 13 kts 160°
2026-05-06 21:36 22.31343 113.92124 41 ft 13 kts 161°
2026-05-06 21:36 22.31258 113.92156 41 ft 13 kts 161°
2026-05-06 21:37 22.31172 113.92188 41 ft 13 kts 161°
2026-05-06 21:37 22.31089 113.92219 41 ft 13 kts 161°
2026-05-06 21:37 22.31003 113.92251 41 ft 13 kts 161°
2026-05-06 21:37 22.30918 113.92284 41 ft 13 kts 161°
2026-05-06 21:38 22.30829 113.92317 41 ft 14 kts 161°
2026-05-06 21:38 22.30735 113.92336 41 ft 14 kts 203°
2026-05-06 21:38 22.30690 113.92244 41 ft 14 kts 251°
2026-05-06 21:38 22.30657 113.92141 41 ft 14 kts 251°
2026-05-06 21:39 22.30624 113.92039 41 ft 14 kts 250°
2026-05-06 21:39 22.30591 113.91937 41 ft 14 kts 250°
2026-05-06 21:39 22.30558 113.91834 41 ft 15 kts 251°
2026-05-06 21:39 22.30523 113.91725 41 ft 16 kts 251°
2026-05-06 21:40 22.30487 113.91611 41 ft 16 kts 251°
2026-05-06 21:40 22.30449 113.91494 41 ft 17 kts 249°
2026-05-06 21:40 22.30346 113.91476 41 ft 17 kts 159°
2026-05-06 21:40 22.30231 113.91521 42 ft 17 kts 160°
2026-05-06 21:41 22.30118 113.91563 42 ft 17 kts 162°
2026-05-06 21:41 22.30034 113.91629 41 ft 14 kts 98°
2026-05-06 21:41 22.29996 113.91713 41 ft 15 kts 162°
2026-05-06 21:41 22.29900 113.91749 41 ft 15 kts 158°
2026-05-06 21:42 22.29879 113.91843 41 ft 15 kts 71°
2026-05-06 21:42 22.29914 113.91950 41 ft 15 kts 70°
2026-05-06 21:42 22.29916 113.92028 41 ft 6 kts 130°
2026-05-06 21:42 22.29876 113.92047 41 ft 6 kts 161°
2026-05-06 21:43 22.29850 113.92057 41 ft 0 kts 161°